Weather History for KBWG - August, 2013

Change the Weather History Date:

Saturday, August 24, 2013

  Actual Average Record
Temperature  
Mean Temperature 76 °F 77 °F  
Max Temperature 87 °F 88 °F 103 °F (1943)
Min Temperature 65 °F 65 °F 50 °F (1923)
Degree Days  
Heating Degree Days 0 0  
Month to date heating degree days 0 0  
Since 1 June heating degree days 0 5  
Since 1 July heating degree days 0 0  
Cooling Degree Days 11 12  
Month to date cooling degree days 254 308  
Year to date cooling degree days 1157 1189  
Since 1 June cooling degree days 944 1036  
Growing Degree Days 26 (Base 50)    
Moisture  
Dew Point 66 °F    
Average Humidity 73    
Maximum Humidity 100    
Minimum Humidity 45    
Precipitation  
Precipitation 0.00 in 0.12 in 3.28 in (1922)
Month to date precipitation 5.88 2.52  
Year to date precipitation 42.45 32.75  
Snow  
Snow 0.00 in 0.00 in 0.00 in ()
Month to date snowfall 0.0 0.0  
Since 1 June snowfall 0.0 0.0  
Since 1 July snowfall 0.0 0.0  
Snow Depth 0.00 in    
Sea Level Pressure  
Sea Level Pressure 30.15 in    
Wind  
Wind Speed 4 mph (ENE)    
Max Wind Speed 13 mph    
Max Gust Speed 16 mph    
Visibility 5 miles    
Events Fog    
T = Trace of Precipitation, MM = Missing Value Source: NWS Daily Summary

Daily Weather History Graph

Daily Weather History Graph

Search for Another Location

Airport or City:

Trip Planner

Search our weather history database for the weather conditions in past years. The results will help you decide how hot, cold, wet, or windy it might be!

Date:

Astronomy

Aug. 24, 2013 Rise Set
Actual Time 6:10 AM CDT 7:25 PM CDT
Civil Twilight 5:43 AM CDT 7:51 PM CDT
Nautical Twilight 5:10 AM CDT 8:24 PM CDT
Astronomical Twilight 4:37 AM CDT 8:57 PM CDT
Moon 9:26 PM CDT (8/24) 10:02 AM CDT (8/24)
Length of Visible Light 14h 08m
Length of Day
13h 14m
Waning Gibbous, 84% of the Moon is Illuminated
Aug 24
Waning Gibbous
Aug 28
Last Quarter
Sep 5
New
Sep 12
First Quarter
Sep 19
Full

Hourly Weather History & Observations

Time (CDT) Temp. Heat Index Dew Point Humidity Pressure Visibility Wind Dir Wind Speed Gust Speed Precip Events Conditions
12:11 AM 69.8 °F - 68.0 °F 94% 30.11 in 1.0 mi Calm Calm - N/A   Clear
12:24 AM 69.8 °F - 68.0 °F 94% 30.11 in 0.5 mi Calm Calm - N/A Fog Fog
12:34 AM 68.0 °F - 68.0 °F 100% 30.11 in 1.0 mi Calm Calm - N/A   Clear
12:37 AM 68.0 °F - 68.0 °F 100% 30.11 in 2.5 mi Calm Calm - N/A   Clear
12:44 AM 69.8 °F - 68.0 °F 94% 30.11 in 6.0 mi Calm Calm - N/A   Clear
12:53 AM 69.1 °F - 68.0 °F 96% 30.10 in 5.0 mi Calm Calm - N/A   Clear
1:16 AM 68.0 °F - 66.2 °F 94% 30.11 in 1.8 mi Calm Calm - N/A   Clear
1:30 AM 69.8 °F - 68.0 °F 94% 30.11 in 3.0 mi Calm Calm - N/A   Clear
1:53 AM 69.1 °F - 68.0 °F 96% 30.10 in 6.0 mi Calm Calm - N/A   Clear
2:39 AM 66.2 °F - 66.2 °F 100% 30.12 in 1.2 mi Calm Calm - N/A   Clear
2:44 AM 66.2 °F - 64.4 °F 94% 30.12 in 0.5 mi Calm Calm - N/A Fog Fog
2:53 AM 66.9 °F - 66.0 °F 97% 30.11 in 0.5 mi Calm Calm - N/A Fog Fog
3:02 AM 68.0 °F - 66.2 °F 94% 30.13 in 1.0 mi Calm Calm - N/A   Clear
3:05 AM 69.8 °F - 68.0 °F 94% 30.13 in 2.0 mi Calm Calm - N/A   Clear
3:15 AM 66.2 °F - 66.2 °F 100% 30.13 in 1.2 mi Calm Calm - N/A   Clear
3:26 AM 66.2 °F - 64.4 °F 94% 30.13 in 2.0 mi Calm Calm - N/A   Clear
3:40 AM 66.2 °F - 64.4 °F 94% 30.14 in 5.0 mi Calm Calm - N/A   Clear
3:53 AM 66.0 °F - 64.9 °F 96% 30.13 in 2.5 mi Calm Calm - N/A   Clear
4:20 AM 66.2 °F - 64.4 °F 94% 30.14 in 6.0 mi Calm Calm - N/A   Clear
4:34 AM 64.4 °F - 64.4 °F 100% 30.14 in 3.0 mi Calm Calm - N/A   Partly Cloudy
4:43 AM 64.4 °F - 64.4 °F 100% 30.14 in 1.8 mi NE 3.5 mph - N/A   Scattered Clouds
4:51 AM 64.4 °F - 64.4 °F 100% 30.14 in 1.2 mi Calm Calm - N/A   Scattered Clouds
4:53 AM 64.9 °F - 64.9 °F 100% 30.14 in 1.8 mi Calm Calm - N/A   Scattered Clouds
4:55 AM 64.4 °F - 64.4 °F 100% 30.15 in 3.0 mi Calm Calm - N/A   Scattered Clouds
5:02 AM 66.2 °F - 64.4 °F 94% 30.15 in 1.8 mi Calm Calm - N/A   Partly Cloudy
5:04 AM 66.2 °F - 64.4 °F 94% 30.15 in 1.0 mi Calm Calm - N/A   Mist
5:08 AM 64.4 °F - 64.4 °F 100% 30.15 in 0.5 mi Calm Calm - N/A Fog Fog
5:21 AM 64.4 °F - 64.4 °F 100% 30.15 in 0.5 mi Calm Calm - N/A Fog Fog
5:45 AM 66.2 °F - 64.4 °F 94% 30.16 in 1.0 mi Calm Calm - N/A   Clear
5:53 AM 64.9 °F - 64.9 °F 100% 30.15 in 1.0 mi Calm Calm - N/A   Clear
6:00 AM 64.4 °F - 64.4 °F 100% 30.16 in 2.0 mi Calm Calm - N/A   Clear
6:07 AM 64.4 °F - 64.4 °F 100% 30.17 in 5.0 mi Calm Calm - N/A   Clear
6:27 AM 64.4 °F - 64.4 °F 100% 30.17 in 2.0 mi Calm Calm - N/A   Clear
6:37 AM 64.4 °F - 64.4 °F 100% 30.18 in 4.0 mi Calm Calm - N/A   Clear
6:53 AM 66.9 °F - 64.9 °F 93% 30.17 in 4.0 mi NNE 3.5 mph - N/A   Clear
7:53 AM 71.1 °F - 66.9 °F 87% 30.19 in 8.0 mi NE 5.8 mph - N/A   Clear
8:53 AM 75.0 °F - 69.1 °F 82% 30.20 in 10.0 mi ENE 4.6 mph - N/A   Clear
9:53 AM 79.0 °F - 70.0 °F 74% 30.21 in 10.0 mi ENE 5.8 mph - N/A   Clear
10:53 AM 81.0 °F 84.4 °F 70.0 °F 69% 30.21 in 10.0 mi East 5.8 mph - N/A   Clear
11:53 AM 82.9 °F 86.5 °F 69.1 °F 63% 30.19 in 10.0 mi East 6.9 mph - N/A   Clear
12:53 PM 84.9 °F 88.8 °F 69.1 °F 59% 30.18 in 10.0 mi ENE 5.8 mph - N/A   Clear
1:53 PM 86.0 °F 88.2 °F 66.0 °F 51% 30.18 in 10.0 mi East 10.4 mph - N/A   Clear
2:53 PM 87.1 °F 88.3 °F 64.0 °F 46% 30.17 in 10.0 mi East 10.4 mph - N/A   Clear
3:53 PM 86.0 °F 87.3 °F 64.0 °F 48% 30.17 in 10.0 mi East 8.1 mph - N/A   Clear
4:53 PM 86.0 °F 86.8 °F 63.0 °F 46% 30.17 in 10.0 mi ENE 6.9 mph - N/A   Clear
5:53 PM 84.0 °F 85.4 °F 64.0 °F 51% 30.17 in 10.0 mi ENE 6.9 mph - N/A   Clear
6:53 PM 80.1 °F 81.7 °F 64.0 °F 58% 30.16 in 10.0 mi ENE 5.8 mph - N/A   Clear
7:53 PM 75.9 °F - 62.1 °F 62% 30.17 in 10.0 mi Calm Calm - N/A   Clear
8:53 PM 72.0 °F - 63.0 °F 73% 30.19 in 10.0 mi Calm Calm - N/A   Clear
9:53 PM 69.1 °F - 63.0 °F 81% 30.21 in 10.0 mi Calm Calm - N/A   Clear
10:53 PM 70.0 °F - 63.0 °F 78% 30.22 in 10.0 mi Calm Calm - N/A   Clear
11:53 PM 66.9 °F - 63.0 °F 87% 30.22 in 10.0 mi Calm Calm - N/A   Clear